Wind_Speed
58 60 62 64 66 68 69 71 72 73 72 73 75 78 81 85 89 92 96 100 104 106 107 106 103 98 93 88 85 83 83 84 85 88 92 96 102 108
60 62 65 66 68 69 71 72 73 75 75 76 79 83 88 93 98 102 105 107 106 103 99 92 84 76 70 65 63 61 61 61 62 64 67 70 75 81
62 64 66 68 69 70 72 73 74 76 78 79 84 89 95 100 104 106 105 101 94 86 79 71 65 59 55 52 50 49 49 50 51 52 52 54 57 62
64 66 67 69 70 72 73 75 77 80 84 86 90 96 100 103 102 98 92 84 75 67 62 57 52 49 46 45 44 44 45 46 47 48 49 49 50 52
65 67 68 69 71 73 75 78 81 86 90 94 96 99 100 98 92 83 73 65 59 55 51 47 45 43 42 42 42 42 43 43 44 45 46 46 47 48
66 67 69 70 72 75 78 83 87 92 97 99 99 97 92 84 75 64 56 51 48 46 44 43 42 41 42 42 42 41 40 40 40 40 41 42 43 44
66 68 70 72 75 79 84 89 94 98 100 100 95 87 76 65 56 50 44 41 40 41 39 39 40 40 40 39 38 37 35 34 33 32 33 34 35 37
67 69 72 75 80 84 90 95 98 99 97 92 83 71 60 52 45 40 38 35 35 37 36 36 38 37 36 35 32 30 28 27 27 27 27 28 28 30
69 72 76 80 85 90 94 96 95 92 86 77 66 56 49 43 38 35 34 34 34 35 33 32 33 32 31 28 25 24 24 23 24 24 25 26 27 27
72 76 81 86 91 94 94 92 87 80 71 62 54 47 43 39 36 34 32 31 31 34 33 30 29 28 26 24 23 22 22 23 24 25 26 26 27 28
76 81 86 90 93 93 90 84 75 65 56 50 45 42 39 37 36 33 32 31 29 30 31 29 27 25 24 23 22 22 22 24 26 27 27 28 29 29
81 86 90 92 91 87 81 71 60 51 45 42 40 39 37 37 36 35 33 31 29 27 27 26 25 22 20 22 21 22 24 26 28 29 30 30 31 31
85 89 90 88 84 76 67 57 48 42 38 37 36 36 36 36 36 35 34 33 30 27 26 24 22 20 18 17 20 23 25 27 29 30 30 30 31 31
88 88 86 80 72 62 53 45 40 37 35 34 34 35 34 35 34 34 34 33 31 27 24 23 20 19 17 16 18 20 24 28 29 28 28 27 28 29
86 83 76 67 57 48 42 38 35 33 33 33 34 34 34 34 33 32 32 31 30 27 23 21 19 17 16 16 17 19 22 24 26 25 25 25 27 28
80 72 62 52 43 38 34 32 31 32 32 33 33 33 33 32 31 29 28 27 27 26 23 19 17 16 15 16 17 20 23 24 23 22 23 25 27 30
69 58 47 39 34 31 30 30 31 32 32 32 32 31 31 30 29 28 26 25 23 22 21 20 17 15 14 14 16 20 22 22 21 21 21 24 27 30
53 43 36 31 29 28 29 30 31 31 31 31 31 30 29 28 27 26 25 23 21 20 18 17 16 15 14 14 15 18 20 20 19 19 20 23 25 28
39 32 28 26 26 27 28 29 31 31 31 31 30 28 27 26 26 25 23 21 19 18 15 14 13 12 11 12 14 16 17 17 17 17 19 21 23 25
28 24 23 24 25 27 28 29 31 31 31 30 29 27 26 25 25 23 21 19 17 16 14 11 10 9 8 8 10 13 15 15 15 15 17 19 22 24
21 20 21 23 25 27 28 29 30 30 30 29 28 27 26 24 23 21 19 17 15 13 12 10 8 7 6 7 9 11 13 14 14 14 16 18 19 20
17 18 21 23 26 28 29 29 29 29 29 29 28 26 25 23 20 18 16 15 13 12 9 7 5 4 4 5 8 10 11 12 13 14 15 16 16 17
16 18 21 24 26 28 28 29 29 28 28 28 27 25 23 21 18 16 15 13 11 9 7 4 2 1 2 4 7 9 10 10 12 13 13 13 14 15
Wind_Direction
297 298 299 300 300 300 301 301 301 301 301 301 300 300 299 299 298 298 298 297 295 294 292 291 290 288 286 284 282 279 277 275 272 270 267 264 262 259
299 300 301 301 301 302 302 303 303 303 303 303 302 302 302 302 301 301 300 299 297 296 295 294 292 291 289 287 285 283 280 278 276 274 271 267 264 261
300 301 302 302 303 303 304 304 304 304 304 304 304 304 303 303 302 302 301 299 298 297 295 295 294 293 291 289 287 285 283 281 279 277 275 271 268 264
301 302 303 303 304 305 305 305 305 305 305 305 305 305 304 303 303 302 300 299 298 297 296 296 295 294 293 291 289 288 286 284 281 278 276 273 270 267
302 303 304 305 305 306 306 306 306 306 306 306 306 306 305 304 303 302 301 299 298 298 298 297 297 296 295 294 292 291 289 287 283 280 277 274 272 269
304 305 306 306 306 307 307 307 307 307 307 307 307 307 306 305 304 302 301 300 299 298 299 300 299 299 298 298 297 295 293 291 287 283 280 277 274 271
305 306 307 307 308 308 308 308 308 308 308 309 309 308 307 306 304 303 301 300 300 299 302 302 301 301 301 301 300 299 298 296 294 290 287 283 279 275
306 307 307 308 308 308 309 309 309 310 310 310 310 309 308 307 305 303 302 301 300 300 304 304 303 303 302 303 302 302 301 301 300 299 296 292 288 282
307 308 308 308 309 309 309 310 311 310 310 310 309 309 308 307 305 304 304 305 304 303 305 306 305 305 304 305 306 306 305 304 303 302 301 298 294 290
309 309 309 310 310 310 311 311 311 310 310 309 309 309 308 307 306 306 306 306 306 306 308 309 308 308 306 306 307 307 307 307 306 304 303 299 296 293
309 310 310 310 311 311 312 312 312 311 310 309 309 309 309 309 308 308 308 308 307 307 308 310 310 310 308 308 309 310 311 312 312 309 307 303 300 296
311 311 312 312 312 313 313 314 313 311 309 309 309 310 310 310 310 309 308 308 308 306 305 307 307 308 306 308 310 312 315 317 317 315 312 309 305 300
312 313 313 313 313 313 314 314 313 311 309 309 309 309 310 310 310 309 309 308 309 307 305 304 304 304 303 301 306 312 316 319 320 319 317 314 311 307
314 313 313 313 314 314 314 314 313 312 311 310 309 309 309 310 310 309 308 308 308 307 305 302 301 300 298 299 304 311 317 321 324 325 324 322 319 316
314 313 314 314 314 314 315 315 315 314 313 312 311 310 309 309 309 308 308 308 308 307 305 302 301 299 299 302 308 316 323 327 329 331 333 332 330 328
314 314 314 315 315 316 317 318 319 318 317 315 314 313 312 311 310 309 307 307 307 307 306 303 300 301 300 307 315 324 331 335 338 339 341 344 345 342
315 316 316 317 319 320 322 323 323 323 322 321 320 318 316 315 314 313 311 309 306 304 302 303 302 302 302 308 319 329 335 339 342 344 347 350 351 351
317 318 318 320 322 324 325 325 326 326 325 324 323 321 319 318 317 316 315 312 309 306 301 299 300 304 307 313 324 332 337 341 346 350 353 355 356 358
319 320 322 325 327 328 328 328 329 329 328 326 325 323 321 320 320 319 318 316 313 311 305 300 297 299 303 313 323 333 340 346 351 357 0 2 4 7
323 326 329 331 332 333 333 333 333 332 331 330 328 326 324 322 321 320 319 317 315 314 310 303 297 299 303 315 326 334 344 353 357 2 6 9 12 15
331 334 336 338 338 338 338 337 337 336 335 334 332 330 327 325 323 322 321 321 318 316 313 304 299 301 309 325 340 348 354 360 5 11 14 16 20 22
338 341 342 342 342 342 341 341 341 340 340 338 337 335 333 330 328 326 326 326 324 321 318 309 303 307 318 338 352 -0 6 8 12 17 20 25 31 32
345 346 347 347 347 346 347 347 347 346 346 344 343 342 340 338 337 334 333 332 331 329 325 318 319 334 355 0 5 11 17 20 22 25 27 30 35 40
Height
5658 5652 5646 5639 5632 5625 5617 5610 5602 5597 5591 5581 5569 5559 5547 5537 5527 5517 5507 5496 5484 5471 5460 5449 5438 5427 5418 5409 5402 5395 5389 5385 5382 5379 5378 5379 5381 5385
5645 5639 5632 5624 5617 5609 5601 5592 5583 5575 5570 5562 5549 5536 5523 5511 5498 5485 5473 5460 5447 5434 5422 5412 5403 5395 5388 5381 5375 5369 5364 5359 5355 5351 5349 5347 5347 5348
5632 5625 5617 5609 5600 5592 5583 5575 5565 5556 5549 5543 5528 5515 5500 5485 5471 5456 5440 5426 5415 5404 5393 5386 5379 5373 5367 5362 5356 5351 5346 5341 5336 5332 5328 5326 5324 5324
5618 5610 5602 5593 5584 5575 5565 5556 5546 5536 5526 5520 5509 5492 5476 5458 5442 5428 5412 5398 5389 5381 5373 5367 5361 5356 5351 5346 5341 5336 5331 5326 5321 5316 5312 5309 5307 5304
5603 5595 5586 5577 5567 5558 5548 5537 5526 5515 5503 5493 5483 5467 5450 5431 5416 5403 5390 5378 5370 5363 5358 5353 5348 5342 5337 5332 5327 5322 5317 5311 5306 5301 5297 5293 5291 5289
5588 5579 5570 5560 5550 5540 5530 5518 5506 5493 5479 5466 5454 5440 5423 5406 5392 5382 5374 5364 5356 5350 5346 5341 5335 5330 5324 5319 5313 5308 5303 5297 5292 5287 5283 5279 5277 5274
5573 5564 5554 5544 5533 5522 5510 5497 5482 5467 5452 5438 5425 5412 5399 5386 5376 5367 5360 5354 5346 5339 5336 5330 5324 5319 5313 5307 5301 5296 5291 5286 5280 5276 5271 5267 5264 5262
5558 5549 5539 5528 5516 5504 5490 5474 5457 5441 5426 5412 5400 5388 5379 5370 5363 5356 5349 5344 5338 5332 5326 5321 5314 5309 5302 5297 5292 5287 5281 5277 5272 5267 5263 5259 5255 5252
5543 5533 5522 5510 5497 5484 5469 5453 5435 5416 5401 5389 5381 5372 5365 5358 5352 5347 5340 5334 5328 5322 5317 5313 5306 5300 5294 5289 5284 5279 5274 5270 5265 5261 5256 5252 5248 5244
5527 5516 5504 5490 5475 5461 5447 5432 5415 5398 5385 5374 5366 5359 5353 5347 5342 5337 5331 5326 5320 5312 5307 5303 5298 5292 5286 5282 5277 5273 5268 5264 5259 5254 5249 5245 5240 5236
5512 5498 5484 5470 5454 5439 5425 5411 5396 5382 5370 5361 5355 5349 5343 5337 5332 5327 5322 5317 5313 5306 5299 5295 5289 5285 5279 5275 5271 5266 5261 5257 5252 5247 5241 5236 5231 5226
5495 5479 5463 5447 5431 5415 5402 5391 5380 5370 5361 5353 5346 5340 5334 5328 5322 5317 5312 5308 5304 5299 5293 5288 5282 5277 5274 5269 5265 5261 5256 5251 5245 5239 5233 5227 5221 5215
5474 5459 5442 5426 5411 5397 5385 5375 5367 5359 5352 5345 5339 5333 5327 5321 5315 5309 5303 5299 5295 5290 5286 5282 5277 5271 5268 5265 5261 5256 5250 5245 5239 5232 5225 5219 5212 5205
5454 5438 5422 5408 5395 5383 5373 5364 5357 5350 5344 5337 5331 5325 5319 5313 5307 5301 5296 5290 5286 5282 5278 5274 5270 5266 5263 5260 5257 5252 5246 5239 5233 5226 5219 5212 5204 5196
5433 5418 5403 5391 5380 5371 5363 5356 5349 5342 5336 5330 5324 5317 5311 5306 5300 5295 5289 5283 5278 5274 5271 5267 5264 5261 5258 5254 5251 5247 5242 5236 5228 5221 5213 5206 5198 5189
5416 5402 5389 5378 5370 5363 5356 5349 5342 5336 5329 5323 5316 5309 5303 5297 5292 5287 5282 5277 5273 5268 5264 5261 5258 5256 5253 5250 5246 5241 5236 5230 5224 5216 5209 5201 5192 5183
5399 5387 5377 5369 5362 5355 5349 5343 5336 5329 5322 5315 5309 5302 5296 5290 5284 5279 5275 5271 5267 5263 5260 5256 5254 5251 5248 5246 5242 5238 5232 5226 5220 5213 5206 5199 5190 5180
5385 5376 5369 5362 5356 5350 5344 5337 5331 5324 5317 5310 5303 5296 5290 5284 5279 5273 5269 5265 5261 5258 5255 5252 5250 5248 5245 5242 5239 5235 5230 5224 5218 5212 5205 5197 5189 5180
5376 5369 5363 5357 5351 5345 5339 5333 5326 5319 5312 5305 5298 5291 5285 5279 5274 5269 5264 5260 5256 5253 5251 5248 5246 5244 5242 5240 5237 5233 5228 5223 5217 5211 5205 5198 5190 5181
5369 5364 5358 5353 5347 5341 5335 5328 5321 5314 5307 5300 5293 5286 5280 5274 5269 5264 5260 5256 5253 5250 5247 5245 5244 5242 5240 5238 5236 5232 5227 5222 5217 5212 5206 5200 5193 5185
5365 5360 5355 5350 5344 5338 5331 5324 5317 5310 5303 5295 5288 5282 5276 5270 5265 5260 5256 5253 5250 5247 5245 5243 5242 5240 5238 5237 5235 5232 5227 5222 5217 5212 5207 5202 5197 5191
5363 5358 5353 5348 5341 5335 5328 5321 5314 5306 5299 5292 5285 5278 5272 5266 5262 5257 5254 5250 5247 5245 5243 5241 5240 5239 5238 5237 5234 5231 5228 5224 5219 5214 5210 5205 5201 5196
5362 5357 5352 5346 5339 5332 5325 5318 5311 5304 5297 5289 5282 5276 5270 5264 5259 5255 5252 5248 5246 5244 5242 5241 5240 5239 5238 5237 5235 5232 5229 5225 5222 5218 5214 5209 5205 5201